Regional Weather Roundup
Issued by NWS

Home | Current Version | Previous Version | Text Only | Print | Product List | Glossary Off
Versions: 1 2 3 4 5 6 7 8 9 10 11 12 13 14 15 16 17 18 19 20 21 22 23 24 25 26 27 28 29 30 31 32 33 34 35 36 37 38 39 40 41 42 43 44 45 46 47 48 49 50

000
ASUS43 KBIS 240102
RWRND

NORTH DAKOTA REGIONAL WEATHER ROUNDUP
NATIONAL WEATHER SERVICE BISMARCK ND
800 PM CDT MON MAY 23 2016

NOTE: "FAIR" INDICATES FEW OR NO CLOUDS BELOW 12,000 FEET WITH NO
SIGNIFICANT WEATHER AND/OR OBSTRUCTIONS TO VISIBILITY.


NDZ001>003-009>011-017-240200-
NORTHWEST NORTH DAKOTA

CITY           SKY/WX    TMP DP  RH WIND       PRES   REMARKS
WILLISTON      CLOUDY    68  36  30 W17G25    29.68R
MINOT          TSTM      69  40  34 NW6       29.66R
MINOT AFB      PTSUNNY   71  36  27 W15       29.64R
$$

NDZ018>021-031>035-040>046-240200-
SOUTHWEST NORTH DAKOTA

CITY           SKY/WX    TMP DP  RH WIND       PRES   REMARKS
BISMARCK       SUNNY     71  39  31 W7        29.68R
DICKINSON      MOSUNNY   61  41  47 SE8       29.70S
GARRISON         N/A     68  36  30 S25G37    29.69R
HETTINGER ARPT PTSUNNY   67  37  33 NE10      29.73R
$$

NDZ004>008-012>016-024-026-027-054-240200-
NORTHEAST NORTH DAKOTA

CITY           SKY/WX    TMP DP  RH WIND       PRES   REMARKS
GRAND FORKS    PTCLDY    77  52  41 SW5       29.64S
GRND FRKS AFB  CLEAR     76  53  45 SW5       29.65S
DEVILS LAKE    MOSUNNY   74  43  32 W9        29.67S
$$

NDZ022-023-025-028>030-036>039-047>053-240200-
SOUTHEAST NORTH DAKOTA

CITY           SKY/WX    TMP DP  RH WIND       PRES   REMARKS
FARGO          CLOUDY    76  47  35 NE8       29.66F
JAMESTOWN      SUNNY     71  51  49 S7        29.66S
$$




USA.gov is the U.S. government's official web portal to all federal, state and local government web resources and services.